Weather History for Swainsboro, GA

Change the Weather History Date:

Thursday, January 17, 2013

  Actual Average Record
Temperature  
Mean Temperature 54 °F -  
Max Temperature 68 °F 59 °F 68 °F (2013)
Min Temperature 41 °F 34 °F 32 °F (2014)
Degree Days  
Heating Degree Days 10    
Growing Degree Days 4 (Base 50)    
Moisture  
Dew Point 54 °F    
Average Humidity 91    
Maximum Humidity 100    
Minimum Humidity 71    
Precipitation  
Precipitation 0.00 in - - ()
Sea Level Pressure  
Sea Level Pressure 29.94 in    
Wind  
Wind Speed 7 mph (SW)    
Max Wind Speed 21 mph    
Max Gust Speed 32 mph    
Visibility 9 miles    
Events Rain    
Averages and records for this station are not official NWS values.
T = Trace of Precipitation, MM = Missing Value Source: NWS Daily Summary

Daily Weather History Graph

Daily Weather History Graph

Search for Another Location

Airport:

Trip Planner

Search our weather history database for the weather conditions in past years. The results will help you decide how hot, cold, wet, or windy it might be!

Date:

Astronomy

Jan. 17, 2013 Rise Set
Actual Time 7:31 AM EST 5:48 PM EST
Civil Twilight 7:04 AM EST 6:15 PM EST
Nautical Twilight 6:34 AM EST 6:45 PM EST
Astronomical Twilight 6:04 AM EST 7:14 PM EST
Moon 11:01 AM EST No Moon Set
Length of Visible Light 11h 10m
Length of Day
10h 17m
Waxing Crescent, 37% of the Moon is Illuminated
Jan 17
Waxing Crescent
Jan 18
First Quarter
Jan 26
Full
Feb 3
Last Quarter
Feb 10
New

Hourly Weather History & Observations

Time (EST) Temp. Windchill Dew Point Humidity Pressure Visibility Wind Dir Wind Speed Gust Speed Precip Events Conditions
12:15 AM 68.0 °F - 62.6 °F 83% 29.98 in 10.0 mi WSW 4.6 mph - N/A   Overcast
12:35 AM 68.0 °F - 62.6 °F 83% 29.98 in 10.0 mi SW 4.6 mph - N/A   Overcast
12:55 AM 68.0 °F - 62.6 °F 83% 29.98 in 10.0 mi SW 3.5 mph - N/A   Overcast
1:35 AM 68.0 °F - 62.6 °F 83% 29.98 in 10.0 mi SSW 3.5 mph - N/A   Overcast
1:55 AM 66.2 °F - 62.6 °F 88% 29.98 in 10.0 mi South 4.6 mph - N/A   Overcast
2:15 AM 66.2 °F - 62.6 °F 88% 29.98 in 10.0 mi South 4.6 mph - N/A   Overcast
2:35 AM 66.2 °F - 62.6 °F 88% 29.97 in 10.0 mi South 5.8 mph - N/A   Overcast
2:55 AM 66.2 °F - 62.6 °F 88% 29.96 in 10.0 mi SSW 4.6 mph - N/A   Overcast
3:15 AM 64.4 °F - 62.6 °F 94% 29.96 in 10.0 mi South 4.6 mph - N/A   Overcast
3:35 AM 64.4 °F - 62.6 °F 94% 29.95 in 10.0 mi South 6.9 mph - N/A   Mostly Cloudy
3:55 AM 64.4 °F - 62.6 °F 94% 29.95 in 10.0 mi South 5.8 mph - N/A   Overcast
4:35 AM 64.4 °F - 64.4 °F 100% 29.94 in 10.0 mi South 3.5 mph - N/A   Overcast
4:55 AM 64.4 °F - 64.4 °F 100% 29.93 in 10.0 mi South 4.6 mph - N/A   Overcast
5:15 AM 64.4 °F - 64.4 °F 100% 29.93 in 10.0 mi South 5.8 mph - N/A   Overcast
5:35 AM 62.6 °F - 62.6 °F 100% 29.93 in 10.0 mi South 5.8 mph - N/A Rain Rain
5:55 AM 62.6 °F - 62.6 °F 100% 29.93 in 10.0 mi South 4.6 mph - N/A   Drizzle
6:15 AM 62.6 °F - 62.6 °F 100% 29.92 in 10.0 mi South 3.5 mph - N/A Rain Light Rain
6:35 AM 62.6 °F - 62.6 °F 100% 29.92 in 7.0 mi South 3.5 mph - N/A Rain Rain
6:55 AM 62.6 °F - 62.6 °F 100% 29.92 in 10.0 mi SSE 4.6 mph - N/A   Overcast
7:15 AM 62.6 °F - 62.6 °F 100% 29.92 in 10.0 mi SSE 6.9 mph - N/A   Overcast
7:35 AM 62.6 °F - 62.6 °F 100% 29.92 in 10.0 mi SSW 3.5 mph - N/A   Overcast
7:55 AM 62.6 °F - 62.6 °F 100% 29.91 in 10.0 mi SSE 6.9 mph - N/A   Overcast
8:15 AM 62.6 °F - 62.6 °F 100% 29.91 in 10.0 mi South 5.8 mph - N/A   Overcast
8:35 AM 64.4 °F - 64.4 °F 100% 29.91 in 10.0 mi South 4.6 mph - N/A   Overcast
8:55 AM 64.4 °F - 64.4 °F 100% 29.90 in 10.0 mi SSE 8.1 mph - N/A   Overcast
9:15 AM 64.4 °F - 64.4 °F 100% 29.89 in 10.0 mi SSE 8.1 mph - N/A   Overcast
9:35 AM 66.2 °F - 64.4 °F 94% 29.89 in 10.0 mi South 8.1 mph - N/A   Overcast
9:55 AM 66.2 °F - 64.4 °F 94% 29.88 in 10.0 mi SSE 10.4 mph - N/A   Overcast
10:15 AM 68.0 °F - 64.4 °F 88% 29.87 in 10.0 mi SSE 9.2 mph - N/A   Overcast
10:35 AM 68.0 °F - 64.4 °F 88% 29.87 in 10.0 mi South 11.5 mph 17.3 mph N/A   Overcast
10:55 AM 68.0 °F - 64.4 °F 88% 29.86 in 10.0 mi SSW 9.2 mph - N/A   Overcast
11:15 AM 68.0 °F - 66.2 °F 94% 29.84 in 10.0 mi SSW 10.4 mph 16.1 mph N/A   Overcast
11:35 AM 59.0 °F - 59.0 °F 100% 29.87 in 10.0 mi West 17.3 mph 31.1 mph N/A Rain Light Rain
11:55 AM 55.4 °F - 55.4 °F 100% 29.87 in 7.0 mi West 19.6 mph 32.2 mph N/A   Drizzle
12:15 PM 55.4 °F - 55.4 °F 100% 29.86 in 10.0 mi WSW 12.7 mph 24.2 mph N/A   Overcast
12:35 PM 55.4 °F - 55.4 °F 100% 29.86 in 5.0 mi WSW 13.8 mph 19.6 mph N/A   Drizzle
12:55 PM 53.6 °F - 53.6 °F 100% 29.86 in 3.0 mi West 10.4 mph 17.3 mph N/A   Drizzle
1:15 PM 53.6 °F - 53.6 °F 100% 29.86 in 4.0 mi WSW 5.8 mph 20.7 mph N/A Rain Heavy Rain
1:35 PM 50.0 °F - 50.0 °F 100% 29.87 in 2.5 mi West 19.6 mph 29.9 mph N/A Rain Heavy Rain
1:55 PM 50.0 °F - 50.0 °F 100% 29.87 in 3.0 mi SW 20.7 mph 31.1 mph N/A   Heavy Drizzle
2:15 PM 46.4 °F 41.9 °F 46.4 °F 100% 29.86 in 4.0 mi WSW 9.2 mph 21.9 mph N/A   Drizzle
2:35 PM 46.4 °F 41.9 °F 46.4 °F 100% 29.87 in 5.0 mi SW 9.2 mph - N/A   Heavy Drizzle
2:55 PM 48.2 °F - 48.2 °F 100% 29.87 in 10.0 mi WSW 6.9 mph - N/A   Overcast
3:15 PM 51.8 °F - 50.0 °F 94% 29.86 in 10.0 mi West 9.2 mph 18.4 mph N/A   Overcast
3:35 PM 50.0 °F - 44.6 °F 82% 29.86 in 10.0 mi West 9.2 mph 23.0 mph N/A   Overcast
3:55 PM 50.0 °F - 42.8 °F 76% 29.87 in 10.0 mi West 16.1 mph 21.9 mph N/A   Mostly Cloudy
4:15 PM 50.0 °F - 42.8 °F 76% 29.88 in 10.0 mi West 13.8 mph 23.0 mph N/A   Overcast
4:55 PM 48.2 °F - 41.0 °F 76% 29.90 in 10.0 mi West 15.0 mph 28.8 mph N/A   Overcast
5:55 PM 44.6 °F 38.1 °F 37.4 °F 76% 29.95 in 10.0 mi West 13.8 mph 28.8 mph N/A   Overcast
6:35 PM 44.6 °F 38.4 °F 37.4 °F 76% 29.98 in 10.0 mi West 12.7 mph 17.3 mph N/A   Overcast
6:55 PM 44.6 °F 38.1 °F 35.6 °F 71% 29.99 in 10.0 mi West 13.8 mph 20.7 mph N/A   Overcast
7:35 PM 42.8 °F 36.2 °F 37.4 °F 81% 30.03 in 10.0 mi West 12.7 mph 25.3 mph N/A   Light Drizzle
8:15 PM 41.0 °F 34.7 °F 33.8 °F 76% 30.08 in 10.0 mi WNW 10.4 mph 17.3 mph N/A   Mostly Cloudy
8:55 PM 41.0 °F 35.2 °F 33.8 °F 76% 30.10 in 10.0 mi West 9.2 mph 16.1 mph N/A   Mostly Cloudy
9:15 PM 41.0 °F 36.4 °F 33.8 °F 76% 30.11 in 10.0 mi WNW 6.9 mph - N/A   Overcast
9:55 PM 41.0 °F 36.4 °F 35.6 °F 81% 30.12 in 10.0 mi West 6.9 mph - N/A   Overcast
10:15 PM 41.0 °F 34.3 °F 35.6 °F 81% 30.13 in 10.0 mi West 11.5 mph 17.3 mph N/A   Overcast
10:35 PM 41.0 °F 36.4 °F 35.6 °F 81% 30.14 in 10.0 mi WNW 6.9 mph - N/A   Overcast
10:55 PM 41.0 °F 34.7 °F 35.6 °F 81% 30.15 in 10.0 mi NW 10.4 mph - N/A   Overcast